George, South Africa

10:17 PM SAST on September 23, 2017 (GMT +0200)
George

Weather History for FAGG - September, 2011

Change the Weather History Date:

Saturday, September 10, 2011

  Actual Average Record
Temperature  
Mean Temperature 56 °F -  
Max Temperature 62 °F 65 °F 71 °F (2004)
Min Temperature 51 °F 48 °F 32 °F (1999)
Degree Days  
Heating Degree Days 8    
Growing Degree Days 6 (Base 50)    
Moisture  
Dew Point 49 °F    
Average Humidity 75    
Maximum Humidity 94    
Minimum Humidity 50    
Precipitation  
Precipitation 0.00 in - - ()
Sea Level Pressure  
Sea Level Pressure 30.17 in    
Wind  
Wind Speed 6 mph ()    
Max Wind Speed 15 mph    
Max Gust Speed -    
Visibility 7.1 miles    
Events      
Averages and records for this station are not official NWS values.
T = Trace of Precipitation, MM = Missing Value Source: Averaged Metar Reports

Daily Weather History Graph

Daily Weather History Graph

Search for Another Location

Airport or City:

Trip Planner

Search our weather history database for the weather conditions in past years. The results will help you decide how hot, cold, wet, or windy it might be!

Date:

Astronomy

Sep. 10, 2011 Rise Set
Actual Time 6:37 AM SAST 6:18 PM SAST
Civil Twilight 6:12 AM SAST 6:43 PM SAST
Nautical Twilight 5:43 AM SAST 7:12 PM SAST
Astronomical Twilight 5:14 AM SAST 7:41 PM SAST
Moon 4:44 PM SAST (9/10) 5:12 AM SAST (9/10)
Length of Visible Light 12h 30m
Length of Day
11h 40m
Waxing Gibbous, 96% of the Moon is Illuminated
Sep 10
Waxing Gibbous
Sep 12
Full
Sep 20
Last Quarter
Sep 27
New
Oct 4
First Quarter

Hourly Weather History & Observations

Time (SAST) Temp. Dew Point Humidity Pressure Visibility Wind Dir Wind Speed Gust Speed Precip Events Conditions
12:00 AM 55.4 °F 51.8 °F 88% 30.06 in 6.2 mi NE 3.5 mph - N/A   Overcast
1:00 AM 55.4 °F 51.8 °F 88% 30.09 in 6.2 mi NE 2.3 mph - N/A   Mostly Cloudy
2:00 AM 54 °F 50 °F 83% 30.10 in 6 mi NNE 3.5 mph - -  
2:00 AM 53.6 °F 50.0 °F 88% 30.09 in 6.2 mi NNE 3.5 mph - N/A   Mostly Cloudy
3:00 AM 51.8 °F 50.0 °F 94% 30.09 in 6.2 mi NNW 3.5 mph - N/A   Mostly Cloudy
4:00 AM 53.6 °F 50.0 °F 88% 30.09 in 6.2 mi North 3.5 mph - N/A   Mostly Cloudy
5:00 AM 53 °F 50 °F 86% 30.14 in 12 mi NNW 4.6 mph - -   Partly Cloudy
5:00 AM 53.6 °F 50.0 °F 88% 30.12 in 6.2 mi NNW 4.6 mph - N/A   Scattered Clouds
6:00 AM 55.4 °F 50.0 °F 82% 30.15 in 6.2 mi NW 4.6 mph - N/A   Scattered Clouds
7:00 AM 53.6 °F 46.4 °F 77% 30.18 in 6.2 mi WNW 6.9 mph - N/A   Scattered Clouds
7:46 AM 57.2 °F 46.4 °F 67% 30.18 in 6.2 mi WNW 4.6 mph - N/A   Partly Cloudy
8:00 AM 57.2 °F 46.4 °F 67% 30.21 in 6.2 mi West 8.1 mph - N/A   Partly Cloudy
8:45 AM 60.8 °F 46.4 °F 59% 30.21 in 6.2 mi WNW 9.2 mph - N/A   Partly Cloudy
9:00 AM 60.8 °F 44.6 °F 55% 30.21 in 6.2 mi West 9.2 mph - N/A   Partly Cloudy
10:00 AM 59.0 °F 48.2 °F 67% 30.24 in 6.2 mi SSW 15.0 mph - N/A   Scattered Clouds
11:00 AM 61 °F 47 °F 50% 30.24 in 12 mi WSW 11.5 mph - -   Partly Cloudy
11:00 AM 60.8 °F 48.2 °F 63% 30.24 in 6.2 mi SW 11.5 mph - N/A   Scattered Clouds
12:00 PM 59.0 °F 51.8 °F 77% 30.24 in 6.2 mi SSW 15.0 mph - N/A   Scattered Clouds
1:00 PM 59.0 °F 50.0 °F 72% 30.21 in 6.2 mi SSW 13.8 mph - N/A   Partly Cloudy
2:00 PM 58 °F 48 °F 62% 30.21 in 12 mi SSE 11.5 mph - -   Mostly Cloudy
2:00 PM 59.0 °F 50.0 °F 72% 30.21 in 6.2 mi SSE 11.5 mph - N/A   Scattered Clouds
3:00 PM 57.2 °F 50.0 °F 77% 30.18 in 6.2 mi SE 8.1 mph - N/A   Mostly Cloudy
4:00 PM 57.2 °F 48.2 °F 72% 30.18 in 6.2 mi SE 10.4 mph - N/A   Mostly Cloudy
5:00 PM 56 °F 47 °F 64% 30.20 in 12 mi ESE 6.9 mph - -   Mostly Cloudy
5:00 PM 55.4 °F 46.4 °F 72% 30.18 in 6.2 mi ESE 6.9 mph - N/A   Mostly Cloudy
6:00 PM 55.4 °F 48.2 °F 77% 30.18 in 6.2 mi SE 5.8 mph - N/A   Mostly Cloudy
7:00 PM 55.4 °F 48.2 °F 77% 30.18 in 6.2 mi ESE 6.9 mph - N/A   Mostly Cloudy
8:00 PM 55 °F 48 °F 69% 30.21 in 12 mi ESE 5.8 mph - -   Mostly Cloudy
8:00 PM 55.4 °F 48.2 °F 77% 30.18 in 6.2 mi ESE 5.8 mph - N/A   Mostly Cloudy
9:00 PM 53.6 °F 48.2 °F 82% 30.18 in 6.2 mi East 4.6 mph - N/A   Overcast
10:00 PM 55.4 °F 48.2 °F 77% 30.18 in 6.2 mi ENE 5.8 mph - N/A   Overcast
11:00 PM 55.4 °F 48.2 °F 77% 30.15 in 6.2 mi East 5.8 mph - N/A   Mostly Cloudy